ECMWFNIL_sfc_dewp_057.txt.gz
Dewpoint
70 70 69 69 69 69 68 68 68 68 68 69 70 71 71 72 72 73 73 73 73 74 74 75 75 75 75 75 75 75 75 74 74 73 72 71 69 68 67 66 66 64
70 70 70 69 70 70 69 68 68 69 68 68 69 70 71 72 72 72 73 73 73 73 74 75 75 75 75 75 74 74 74 74 73 73 72 71 69 68 67 66 66 66
70 69 69 69 69 69 69 69 69 69 69 69 69 70 71 72 72 72 73 73 73 73 74 74 75 75 75 75 74 74 74 74 73 73 72 71 70 68 68 66 65 66
70 69 69 69 69 69 70 70 69 69 70 70 69 70 71 72 72 72 72 74 73 73 73 74 74 75 75 75 74 74 74 74 74 73 72 72 71 69 68 67 66 65
69 69 69 69 69 69 69 70 69 69 69 70 70 71 72 72 72 72 72 72 73 73 73 73 74 74 75 75 74 74 74 73 73 73 72 72 71 70 69 68 67 65
70 70 69 69 69 69 68 69 70 70 69 69 70 71 71 71 72 72 72 72 72 72 73 73 73 74 74 74 74 74 74 73 73 73 72 72 72 71 70 69 68 67
69 69 69 69 69 69 69 69 69 71 70 70 71 71 71 71 71 71 71 71 72 72 72 73 73 73 74 74 74 73 73 73 73 73 72 72 72 71 70 69 68 68
69 69 69 69 69 69 69 69 69 70 71 71 70 71 72 71 72 72 72 71 71 72 72 72 73 73 74 74 73 73 73 73 73 73 72 72 72 71 71 70 68 68
69 69 69 69 69 69 69 69 69 70 71 71 71 71 71 72 72 72 72 72 71 71 72 72 73 73 73 74 73 73 73 73 73 73 72 72 72 71 71 70 69 68
69 69 69 69 69 69 69 69 69 70 71 71 71 71 71 72 72 72 72 72 72 71 71 72 72 73 73 73 73 73 73 73 73 73 73 72 72 72 71 71 70 69
68 69 69 69 69 69 69 69 69 69 70 70 71 71 71 71 72 72 72 72 72 72 71 71 72 72 73 73 73 73 73 73 73 73 72 72 72 72 72 71 70 69
69 69 69 69 69 69 69 69 69 69 69 70 71 71 71 71 71 72 72 72 72 72 72 72 72 72 72 73 73 73 73 73 73 73 73 72 72 72 72 71 71 70
69 69 69 69 69 69 69 69 69 69 69 69 70 70 71 71 71 71 72 72 72 72 72 72 72 72 72 72 73 73 73 73 73 73 73 72 72 72 72 72 71 71
69 69 69 69 69 70 69 69 69 69 69 69 69 69 70 70 71 71 71 72 72 72 72 72 72 72 72 72 72 72 73 73 73 72 72 72 72 72 72 72 72 71
70 70 70 70 70 70 70 69 69 69 69 69 69 69 69 69 70 71 71 71 72 72 72 72 71 72 72 72 72 72 72 72 73 73 72 72 72 72 73 73 72 72
70 71 71 71 70 70 70 70 69 69 69 69 69 69 69 69 69 70 71 71 71 71 71 72 72 72 69 65 67 72 72 72 72 73 73 72 72 72 72 73 73 72
71 71 71 71 71 71 70 70 70 70 70 70 69 69 69 69 69 69 69 70 71 71 71 71 72 71 66 63 64 65 71 72 72 72 73 73 73 72 72 72 72 73
71 71 71 71 71 71 71 70 70 70 70 70 69 69 69 69 69 69 69 69 70 70 71 71 71 66 64 63 63 63 65 72 72 72 72 73 73 73 73 72 72 72
71 71 71 71 71 71 71 71 70 70 70 69 69 69 69 69 69 69 69 69 69 69 69 70 71 65 63 62 62 62 62 66 72 72 72 72 72 73 73 73 72 72
72 71 71 71 72 71 71 71 70 70 70 70 69 70 69 69 69 69 69 69 69 69 69 69 70 66 62 61 61 61 61 63 71 72 72 72 72 72 72 72 72 72
72 72 71 72 72 72 71 71 71 70 70 70 69 69 69 69 69 69 69 69 69 69 69 69 69 64 61 59 59 59 60 61 69 71 71 71 72 72 72 72 72 72
72 72 72 72 72 72 71 71 71 71 70 70 70 69 69 69 69 69 69 69 69 69 69 68 69 62 60 59 58 58 59 65 68 70 71 71 71 71 72 72 72 72
72 72 72 72 72 72 71 71 71 71 71 70 70 69 69 68 68 68 69 69 69 69 69 69 69 64 59 58 57 57 59 67 68 69 70 71 71 71 72 72 72 72
73 72 72 72 72 72 72 71 71 71 71 71 70 69 69 68 68 68 68 68 68 69 69 69 68 65 58 57 57 56 60 67 68 69 70 70 71 71 72 72 72 70
73 73 73 72 72 72 72 71 71 71 71 71 70 70 69 69 69 68 68 68 68 68 67 68 69 66 58 57 56 55 61 68 69 69 69 70 70 70 71 71 72 71
73 73 73 73 72 72 72 72 72 71 71 71 71 70 70 69 69 68 68 68 68 68 68 69 69 69 66 56 55 54 57 68 69 69 69 70 70 70 70 71 71 71

ECMWFNIL_sfc_dewp_063.txt.gz
Dewpoint
73 73 72 72 72 72 72 72 72 72 73 72 72 73 74 75 76 76 76 77 77 77 77 77 78 77 76 77 77 77 77 76 76 76 76 76 75 75 74 75 75 75
73 73 73 72 73 73 74 73 73 73 74 74 73 74 75 76 76 76 76 76 77 76 77 77 77 77 77 76 77 76 76 76 76 76 77 77 76 75 74 75 74 75
73 73 72 72 71 72 70 72 74 73 73 73 74 75 74 75 75 76 76 76 76 75 77 77 77 77 77 77 78 77 76 77 76 75 77 77 76 75 76 73 73 74
73 73 71 71 71 71 71 72 73 73 73 73 73 72 73 73 75 75 76 76 76 76 76 76 76 76 77 77 78 76 76 77 76 77 76 77 77 76 76 76 75 74
73 72 72 71 71 72 73 72 71 72 71 72 72 73 74 75 75 74 75 75 76 76 76 76 77 76 77 77 77 77 76 76 77 77 76 76 77 76 76 76 76 75
73 73 73 72 72 73 72 71 71 71 71 71 72 72 72 73 74 73 74 74 74 74 74 74 75 75 76 77 77 77 76 75 75 76 75 75 75 76 75 76 76 76
72 73 72 72 72 72 72 72 72 72 71 71 72 72 72 72 73 74 74 74 73 74 73 75 76 76 76 76 77 76 76 76 76 75 75 75 76 76 76 76 76 76
72 72 72 72 71 71 72 71 72 72 72 72 72 72 72 71 72 72 73 73 73 74 75 75 76 77 75 76 76 76 76 75 75 75 75 75 75 75 76 76 76 76
72 72 72 72 71 71 70 70 71 72 72 72 71 70 72 72 72 72 73 74 74 74 75 75 76 76 75 75 76 76 76 75 75 75 76 75 75 76 76 76 76 76
72 72 71 71 70 70 70 70 70 71 72 71 71 70 71 72 72 72 73 75 74 74 75 75 75 75 75 75 76 76 76 76 76 76 76 76 76 75 75 76 75 76
71 71 71 70 70 69 70 69 69 70 71 71 70 70 70 71 73 73 74 74 73 73 74 74 74 75 75 74 74 75 76 75 76 76 76 76 76 76 76 76 76 75
70 70 70 70 70 69 69 69 69 70 70 70 70 70 71 70 72 72 73 74 74 73 74 75 75 75 75 75 73 74 75 75 75 76 75 76 76 75 76 76 75 75
70 70 70 70 71 70 70 70 69 69 69 70 70 70 70 70 70 72 73 73 74 74 74 74 75 75 75 76 75 75 75 75 74 75 75 75 75 75 74 75 75 75
71 71 71 72 71 72 71 70 70 70 70 70 71 71 70 70 70 71 72 72 73 74 74 74 75 74 75 75 75 75 75 75 75 74 74 74 75 75 74 74 74 74
72 71 72 72 72 72 72 71 71 71 71 71 72 71 70 70 70 70 71 72 72 73 74 74 73 73 74 74 75 75 75 74 74 74 74 74 74 74 74 74 74 74
73 73 73 73 73 73 73 72 71 71 71 71 72 71 72 72 72 72 71 71 72 73 73 73 73 73 71 66 68 74 75 73 74 75 75 74 75 75 74 74 74 73
73 73 74 73 73 73 74 73 73 72 72 73 72 72 72 73 72 72 71 71 71 71 72 72 72 72 66 64 64 66 72 74 74 75 75 75 74 75 75 74 74 74
72 73 73 73 73 73 74 74 73 73 73 73 73 72 73 73 72 72 72 71 71 71 71 71 72 67 64 63 63 63 66 73 73 74 73 74 74 74 74 74 74 73
73 73 73 73 73 73 74 74 74 73 73 73 72 72 72 73 73 72 72 72 71 72 71 71 71 66 63 62 63 62 62 67 72 73 73 73 73 74 74 74 75 74
73 73 73 73 73 73 73 73 73 73 72 71 71 72 73 72 72 72 72 73 72 72 72 71 71 66 62 61 61 61 62 64 72 72 72 73 73 73 74 74 75 75
73 73 73 73 73 73 73 73 73 73 73 72 71 71 72 72 72 72 72 72 72 71 72 71 70 64 60 60 59 59 60 62 72 72 72 73 73 74 74 74 75 75
72 72 73 73 73 73 73 73 73 73 73 72 72 71 72 71 72 71 71 72 72 71 70 71 70 62 60 59 58 59 60 68 72 73 73 73 73 74 74 75 75 75
71 71 72 73 73 73 73 72 73 73 73 73 72 71 70 71 71 71 72 71 71 72 71 71 71 66 59 57 57 57 59 70 72 72 73 73 73 74 74 75 75 75
72 72 72 73 73 73 73 72 72 72 72 73 72 71 70 70 71 71 71 72 71 71 71 71 71 67 58 56 56 56 62 71 72 73 73 74 74 74 74 75 75 73
72 72 73 72 73 73 72 72 72 73 72 73 71 71 71 72 71 71 71 72 70 70 69 70 71 68 58 56 56 55 62 72 72 72 73 73 72 73 74 74 75 74
72 74 74 73 73 74 73 73 73 72 72 72 72 71 71 71 71 71 71 71 71 71 70 70 70 71 70 56 55 54 57 71 73 72 72 72 73 72 72 74 74 75

ECMWFNIL_sfc_dewp_069.txt.gz
Dewpoint
73 74 73 72 70 69 70 71 70 69 69 65 65 69 68 69 71 69 70 72 74 74 74 75 76 76 74 75 76 75 75 74 74 72 73 73 72 72 72 72 74 73
73 74 74 73 73 72 71 70 72 71 71 70 66 67 70 70 70 70 70 71 72 74 75 73 75 76 76 74 75 74 74 74 74 71 72 73 73 72 70 72 72 74
73 73 73 73 72 71 69 70 72 71 69 69 68 68 68 70 71 73 72 71 71 70 73 74 74 76 75 75 74 74 73 75 75 71 72 73 72 72 72 69 70 72
73 74 72 72 72 72 71 70 71 72 70 69 69 65 66 65 70 72 73 73 72 71 71 73 73 73 75 75 75 74 73 74 74 74 73 73 74 72 72 71 70 70
73 73 72 73 72 73 73 71 69 70 69 68 69 70 69 70 71 70 73 73 73 72 72 72 73 73 74 75 75 74 73 72 73 75 75 74 75 74 72 71 71 70
74 74 74 73 73 73 72 71 71 69 70 67 69 69 69 69 70 71 72 73 72 70 69 70 72 72 72 74 75 75 73 70 69 74 74 75 73 71 69 70 72 72
72 73 72 72 72 72 73 73 72 71 70 68 70 70 70 70 70 72 73 72 71 72 68 71 73 73 72 73 75 75 74 73 72 72 74 74 75 74 70 71 72 72
72 72 73 73 71 71 73 73 73 72 71 71 69 70 70 69 71 70 71 72 71 71 72 69 73 74 71 71 73 74 74 72 72 73 73 74 74 74 74 73 72 73
72 73 72 72 71 71 71 71 72 72 72 71 69 68 70 70 71 71 72 72 72 72 73 72 73 73 72 72 73 74 74 72 71 72 73 73 74 74 73 74 73 74
73 72 71 71 70 70 70 69 70 71 71 71 70 67 69 71 71 72 73 74 72 72 73 74 73 73 73 72 72 73 74 74 74 72 73 73 73 73 73 73 72 73
71 70 71 71 70 69 69 69 68 69 71 70 70 68 67 70 72 72 74 74 72 72 73 74 73 74 74 72 72 72 73 73 74 74 73 73 74 74 73 73 72 71
71 70 70 70 69 68 68 68 67 67 69 70 70 69 68 68 71 71 72 74 74 73 74 75 75 75 75 73 70 71 72 73 73 74 73 73 74 74 74 74 72 72
70 70 70 69 70 68 67 67 67 65 66 69 70 69 67 66 69 72 72 73 75 74 73 75 75 75 76 75 73 73 72 73 71 72 72 73 73 73 72 72 72 72
71 70 70 72 71 72 69 67 67 66 66 68 70 70 67 66 66 70 71 72 74 74 75 75 76 75 76 77 75 72 71 72 72 71 70 72 72 73 72 69 69 69
73 71 71 72 71 72 69 68 68 68 68 68 71 70 68 67 66 68 71 72 73 75 75 74 74 75 75 75 76 74 72 70 72 71 70 71 72 71 71 71 68 66
75 74 74 73 72 73 73 71 68 69 66 67 70 70 71 71 70 68 69 71 72 74 74 73 73 74 73 69 72 75 73 69 70 72 72 70 71 71 69 69 69 67
74 75 76 75 75 74 74 74 73 70 71 73 72 72 74 75 71 68 67 70 71 72 73 72 71 70 68 66 67 70 74 73 71 72 73 73 70 72 72 69 68 68
74 76 76 75 76 76 76 75 74 74 74 74 72 72 75 73 71 70 71 68 70 71 71 71 70 68 64 65 66 66 70 75 71 70 70 72 72 70 70 70 68 65
76 75 76 75 76 76 76 76 76 75 73 72 71 73 73 74 74 71 71 70 69 71 71 71 70 66 63 63 64 65 65 71 70 70 68 69 71 72 70 70 71 69
76 76 76 76 76 77 77 76 75 75 73 72 72 73 75 74 73 73 72 74 72 71 73 71 71 66 62 62 63 63 64 67 73 69 69 68 70 70 71 71 73 73
76 76 77 77 77 77 77 77 75 75 74 72 72 72 74 75 73 73 73 73 71 70 71 70 68 63 61 60 61 61 63 65 73 70 70 71 71 71 73 72 73 73
76 76 77 77 77 77 77 76 76 76 76 74 73 72 73 74 74 73 73 73 73 71 69 70 69 61 60 60 60 60 62 71 74 73 72 71 72 72 73 75 75 75
75 75 76 77 77 76 77 76 76 76 76 75 73 72 72 73 74 72 74 73 73 73 72 71 70 65 59 58 58 59 62 73 74 73 74 73 73 73 73 74 74 75
76 76 76 76 77 76 76 75 75 76 75 75 73 71 70 71 73 73 72 73 72 73 72 72 70 68 56 57 57 58 65 73 74 74 74 74 74 74 74 75 75 76
75 75 76 76 77 76 75 76 75 76 75 75 73 72 70 71 72 72 72 72 71 71 72 71 70 66 56 56 56 56 65 75 74 74 74 74 73 74 74 74 75 75
75 76 76 76 77 76 76 76 75 75 75 74 74 72 70 69 69 71 71 71 71 70 70 71 71 72 65 55 55 55 59 75 75 74 73 74 74 74 74 75 75 75

ECMWFNIL_sfc_dewp_072.txt.gz
Dewpoint
73 73 72 71 70 69 71 71 70 70 71 69 70 71 71 73 74 75 73 74 76 76 76 78 78 78 77 78 79 78 78 75 77 78 77 77 77 73 72 72 75 75
74 74 73 72 72 71 72 72 72 71 72 72 70 72 73 73 71 74 74 74 75 75 77 76 78 78 78 77 78 78 78 78 77 73 77 76 77 74 71 73 72 77
74 74 73 72 70 70 67 71 73 72 72 70 70 73 72 71 72 73 75 74 74 73 76 76 77 78 77 78 78 77 76 78 77 74 77 76 77 75 75 69 71 71
74 74 72 71 70 70 68 70 72 73 71 71 68 67 69 67 71 72 74 75 75 75 75 75 75 75 77 77 77 77 76 78 76 78 77 77 77 75 75 75 72 74
73 73 73 72 72 72 71 69 68 71 69 70 69 68 70 74 72 72 73 74 75 74 75 75 75 75 77 77 77 76 76 76 76 78 78 77 77 76 74 75 76 74
73 74 74 74 74 74 71 69 69 69 69 67 70 69 68 71 73 71 72 72 71 71 70 72 74 73 75 76 77 76 75 73 73 76 76 76 75 74 72 74 75 75
72 73 72 72 72 73 72 71 70 70 69 68 70 70 69 68 71 72 73 73 71 71 69 71 74 74 74 75 76 76 76 76 75 76 75 76 77 76 73 74 76 75
71 71 72 73 71 71 72 72 70 70 71 71 68 70 70 67 69 69 72 73 72 73 72 72 74 76 73 74 75 76 75 73 74 76 76 76 76 76 76 74 76 76
72 72 72 72 71 71 70 70 70 70 71 71 67 66 70 69 69 68 72 74 73 74 74 73 75 74 73 73 75 76 75 73 72 73 75 75 75 76 75 75 75 75
72 72 71 70 70 70 70 70 69 68 70 69 67 66 67 71 71 70 72 75 74 75 75 73 74 73 73 73 74 75 75 75 75 74 73 73 73 74 74 75 74 75
70 71 71 71 70 69 69 68 69 69 69 68 68 66 67 69 72 72 73 74 73 73 75 74 73 73 73 72 73 74 75 74 75 75 75 74 74 75 76 75 75 74
71 71 70 70 70 69 68 68 67 69 70 69 69 67 68 68 70 71 72 73 73 73 74 75 75 74 74 73 71 72 74 74 75 75 74 74 74 74 75 75 74 74
70 71 71 70 70 69 67 68 68 68 68 68 68 68 66 66 68 70 72 73 73 73 72 74 75 74 75 75 74 73 74 73 73 74 74 74 73 73 73 74 74 73
71 70 70 72 71 71 70 68 68 68 69 70 70 69 66 65 67 69 71 72 73 73 73 74 75 75 75 76 75 74 73 73 73 73 72 73 73 73 72 72 73 73
72 71 72 73 72 72 71 70 69 69 70 71 72 69 67 66 66 68 70 71 73 74 74 73 73 74 74 75 75 74 73 72 73 72 72 72 73 71 72 73 72 71
74 73 73 73 73 73 72 71 70 70 68 70 72 71 71 70 68 70 70 71 72 74 74 73 73 73 73 69 71 74 73 70 72 73 72 72 73 73 72 72 71 70
74 73 74 74 74 73 73 73 71 70 70 71 73 72 72 73 70 69 69 70 71 71 72 72 71 71 69 66 67 69 73 72 71 73 74 74 72 73 73 71 71 71
73 74 74 74 74 74 74 74 73 72 72 72 72 72 73 72 71 70 70 70 71 71 72 72 73 70 65 65 66 66 70 73 71 71 72 73 73 71 72 72 71 69
75 75 74 74 74 74 74 74 73 73 72 71 70 72 73 73 73 71 70 70 71 72 71 72 72 67 63 63 64 65 66 71 71 70 68 70 72 72 71 71 72 71
75 75 75 75 75 75 75 74 73 73 71 70 70 72 74 73 72 71 71 72 71 73 73 72 72 67 61 62 63 63 64 68 73 71 70 69 71 72 72 71 73 73
75 75 75 75 75 75 75 74 73 73 73 70 68 70 73 73 71 71 71 72 70 71 73 71 70 64 60 60 61 62 63 66 74 71 71 71 71 73 74 73 73 73
75 75 76 76 75 75 75 75 74 74 73 72 70 68 70 72 73 71 71 71 71 69 69 71 69 61 59 59 60 61 62 70 74 74 73 72 73 73 74 75 74 74
75 75 76 76 76 75 75 75 74 74 74 73 71 69 68 70 72 70 72 71 71 71 70 70 69 63 58 58 58 59 62 72 74 74 73 73 73 75 77 77 76 75
75 75 76 76 76 75 75 74 74 73 72 73 71 68 67 69 71 72 72 71 70 70 70 70 70 68 56 57 57 58 65 73 74 74 74 73 73 74 74 76 76 78
76 76 76 76 76 76 75 75 75 74 72 73 70 69 70 72 73 72 71 71 69 69 71 71 69 67 54 57 55 56 64 73 74 74 74 74 73 74 74 74 74 75
76 77 77 76 77 77 77 77 76 73 72 71 71 69 69 69 71 72 72 71 70 70 71 71 70 72 63 55 55 56 59 73 75 74 74 74 74 74 74 75 74 74

ECMWFNIL_sfc_dewp_075.txt.gz
Dewpoint
68 68 66 67 67 67 65 66 66 68 67 65 68 70 71 72 72 71 74 74 74 73 75 75 75 76 75 74 76 75 77 76 73 75 74 74 75 74 74 74 74 74
68 69 68 66 68 69 67 66 66 67 69 67 67 68 70 71 71 71 72 73 74 73 74 76 75 76 75 75 76 75 74 75 74 76 74 73 74 74 73 73 73 73
68 69 68 67 66 67 68 67 67 66 68 68 68 69 69 71 70 72 71 73 73 73 74 75 76 75 75 75 76 75 75 75 74 75 74 74 73 72 73 72 72 74
69 69 68 67 66 66 68 68 68 67 67 68 69 69 68 68 69 69 73 75 73 73 74 74 75 75 75 76 76 75 75 75 75 75 74 75 75 73 73 72 72 72
69 69 68 68 67 67 67 69 68 68 67 67 68 70 70 69 69 68 71 73 73 73 74 74 74 75 76 75 76 75 74 75 75 75 74 74 75 74 73 74 73 72
71 70 69 68 68 67 66 67 69 69 68 67 67 68 70 69 68 69 68 72 72 72 73 74 74 74 75 75 75 75 74 74 74 74 74 74 74 75 73 73 72 73
71 71 70 69 68 68 67 66 68 69 68 68 68 66 67 69 68 69 68 70 72 72 73 73 73 73 75 75 75 74 74 74 73 74 74 74 74 74 73 73 73 72
71 71 71 70 69 68 68 66 66 68 69 68 68 67 65 65 70 69 69 69 70 71 72 73 73 73 73 75 75 75 74 74 74 73 73 73 74 73 74 74 73 72
71 71 71 71 70 69 69 68 66 67 69 68 68 68 67 64 67 69 70 69 69 70 71 71 73 72 73 74 74 74 74 74 74 74 74 73 74 74 74 74 74 74
71 71 71 71 70 70 70 69 68 67 68 68 67 68 68 66 65 68 71 71 70 70 70 70 72 72 72 72 74 74 74 74 73 73 73 74 73 74 74 74 73 73
70 70 70 70 70 70 70 70 69 68 68 68 68 67 68 68 67 66 70 71 71 71 71 70 71 72 72 72 73 74 74 74 73 73 72 73 73 74 76 74 74 73
70 70 70 70 70 70 70 70 70 69 68 68 68 67 67 68 67 66 67 71 71 71 72 71 71 72 72 72 72 73 73 73 73 73 73 72 72 73 74 74 74 74
70 69 69 69 70 70 70 70 70 69 68 68 68 67 66 66 67 67 67 69 71 72 72 72 71 72 72 72 71 72 73 73 73 73 73 73 72 72 72 74 74 74
70 70 70 70 70 70 70 69 69 69 69 68 68 68 66 66 67 68 68 68 70 71 72 73 72 71 72 72 71 71 72 73 73 73 73 73 73 73 72 72 73 73
70 70 70 70 70 70 70 69 69 69 69 69 68 68 67 66 67 68 69 69 70 71 71 72 73 72 72 72 71 71 71 72 72 73 73 73 72 72 72 72 73 73
71 70 70 70 70 70 70 69 69 69 69 69 69 68 67 67 67 68 69 70 70 70 71 71 72 73 72 68 70 71 71 71 72 72 72 72 72 72 72 72 72 72
71 71 70 71 71 70 70 70 69 68 69 70 70 69 68 68 67 68 68 70 70 70 70 70 70 71 68 65 66 68 71 71 71 72 72 72 72 72 72 71 71 72
71 71 71 71 71 71 70 70 69 69 69 69 70 69 69 68 67 68 68 69 70 71 71 70 70 69 65 64 65 65 69 72 71 71 72 71 71 71 72 71 71 71
71 71 71 71 71 71 71 70 70 69 69 69 70 70 69 69 68 67 69 69 69 70 71 71 71 67 64 63 64 64 65 70 71 70 71 71 71 71 71 71 71 71
71 71 71 71 71 71 71 70 70 69 69 68 69 70 70 69 69 68 69 70 69 70 71 72 72 68 62 62 62 63 64 67 71 70 70 71 71 71 71 71 71 71
72 71 71 71 71 71 71 70 70 70 69 68 68 70 70 69 69 68 68 70 70 70 70 71 71 66 61 60 60 61 62 65 71 71 69 69 70 71 71 71 70 71
71 71 71 71 72 72 71 71 70 70 70 69 68 69 70 70 70 69 68 68 70 71 70 71 71 64 61 60 60 60 62 68 71 71 70 69 69 69 71 71 71 71
72 71 71 71 72 72 71 71 70 70 70 70 68 68 69 70 69 69 69 68 68 70 71 71 71 65 60 58 59 59 61 70 71 72 71 70 70 71 71 72 72 71
72 71 71 72 72 71 72 71 71 70 69 70 69 67 68 69 70 69 69 69 68 68 69 71 71 66 58 57 57 58 63 70 71 72 72 71 70 71 72 74 75 77
72 72 72 72 72 72 71 71 71 71 70 70 69 68 67 69 70 70 69 69 68 68 69 69 69 67 56 57 56 56 63 70 71 71 71 71 71 70 70 71 71 74
72 73 72 72 72 72 72 72 72 71 70 69 69 68 67 67 70 70 69 69 69 69 69 69 68 69 62 55 55 55 58 70 71 71 71 71 71 71 70 70 70 70